Location: Champignolles
(47.0543°N, 4.5663°E)
Time: 23:59:42
(UTC+00:00)

N. Korean satellite - Pass Details

Date: 15 December 2021
Orbit: 447 x 491 km, 97.3° (Epoch: 21 January)

Event Time Altitude Azimuth Distance (km) Brightness Sun altitude
Rises 04:15:31 0° 25° (NNE) 2,462 10.4 -30.4°
Enters shadow 04:15:46 - 26° (NNE) 2,366 10.3 -30.4°
Exits shadow 04:22:57 12° 144° (SE) 1,476 9.4 -29.2°
Drops below altitude 10° 04:23:17 10° 147° (SSE) 1,586 9.6 -29.1°
Sets 04:25:39 0° 164° (SSE) 2,460 10.4 -28.7°
